Temperature
12 12 12 12 11 11 11 11 10 10 10 10 10 10 10 11 11 11 12 12 12 13 13 14 14 14 14 14 14 13 13 13 13 13 13 13 13 13 13 13 14 14 14
11 11 11 11 11 11 11 11 10 10 10 10 10 10 10 10 10 11 11 11 11 12 12 13 13 13 13 14 14 13 13 13 13 13 13 13 13 13 12 12 12 13 13
11 11 11 11 11 11 11 10 10 10 10 10 10 10 10 10 10 10 10 10 11 11 11 12 12 13 13 13 13 13 13 13 13 13 13 13 12 12 12 12 12 12 12
10 10 10 10 10 10 10 10 10 10 10 10 10 9 9 9 9 9 9 9 10 10 10 11 11 12 12 13 13 13 13 13 13 13 12 12 12 12 12 12 11 11 12
8 8 8 9 9 9 9 9 9 9 9 9 9 9 9 9 9 9 9 9 9 9 10 10 10 11 12 12 13 13 13 13 13 12 12 12 12 12 12 11 11 11 11
7 7 7 7 7 8 8 8 8 9 9 9 9 9 9 9 9 9 9 9 9 9 9 9 10 10 11 12 12 13 13 13 13 13 12 12 12 12 12 12 11 11 10
5 6 6 6 6 6 7 7 7 8 8 8 8 8 8 8 8 8 9 8 8 9 9 9 9 10 11 11 12 12 12 13 13 13 13 13 12 12 12 12 12 11 11
5 5 5 5 5 5 5 6 6 7 7 7 7 8 8 8 8 8 8 8 8 8 9 9 9 10 10 11 11 12 12 13 13 13 13 13 13 13 13 12 12 11 10
4 4 4 4 4 4 4 5 5 5 6 6 6 7 7 7 8 8 8 8 8 8 8 9 9 9 10 10 11 11 12 12 12 12 13 12 12 12 12 12 11 11 10
4 4 4 4 4 4 4 4 5 5 5 5 6 6 7 7 7 7 8 8 8 8 8 8 8 9 9 10 10 11 11 12 12 12 12 12 12 12 12 12 12 11 10
4 4 4 4 4 4 4 4 4 4 5 5 5 6 6 6 7 7 7 7 8 8 8 8 8 9 9 9 10 10 11 11 11 12 12 11 11 11 11 11 11 12 11
4 4 4 4 4 4 4 4 4 4 4 5 5 5 6 6 6 7 7 7 7 7 8 8 8 8 9 9 9 10 10 11 11 11 11 11 11 11 11 11 11 11 11
5 4 4 4 4 4 4 4 4 4 4 4 5 5 5 6 6 6 7 7 7 7 8 8 8 8 8 9 9 10 10 10 10 11 11 11 11 11 10 10 10 10 10
5 5 5 4 4 4 4 4 4 4 4 4 4 5 5 6 6 6 7 7 7 7 7 8 8 8 8 8 9 9 10 10 10 11 11 11 11 10 10 10 10 9 9
5 5 5 5 4 4 4 4 4 4 4 4 5 5 5 6 6 6 7 7 7 7 7 7 7 8 8 8 9 9 9 9 10 10 11 10 10 10 10 10 10 9 9
6 6 5 5 5 5 5 4 5 5 5 5 5 5 5 6 6 6 7 7 7 7 7 7 7 8 8 8 8 8 9 9 10 10 10 10 10 10 10 9 9 10 10
6 6 6 6 5 5 5 5 5 5 5 5 5 6 6 6 6 6 7 7 7 7 7 7 7 7 7 8 8 8 8 9 9 10 10 10 10 10 10 10 10 10 10
6 6 6 6 6 6 6 6 5 5 5 5 6 6 6 6 6 6 7 7 7 7 7 7 7 7 7 7 8 8 8 9 9 9 10 10 10 10 10 10 10 10 10
7 7 6 6 6 6 6 6 6 6 6 6 6 6 6 6 6 6 6 6 7 7 7 7 7 7 7 7 7 8 8 8 9 9 9 10 10 10 10 10 10 10 10
7 7 7 7 7 6 6 6 6 6 6 6 6 6 6 6 6 6 6 6 6 6 6 6 7 7 7 7 7 8 8 8 9 9 9 10 10 10 10 10 10 9 9
8 7 7 7 7 7 7 6 6 6 6 6 6 6 6 6 6 6 6 6 6 6 6 6 6 7 7 7 7 8 8 9 9 9 10 10 10 10 9 9 9 9 9
7 8 7 7 7 7 7 7 6 6 6 6 6 5 5 5 5 6 6 6 6 6 6 7 7 7 7 7 7 8 8 9 9 9 10 10 10 9 9 9 9 9 9
7 7 7 7 7 7 7 7 7 6 6 6 6 6 6 6 6 6 6 6 6 6 6 7 7 7 7 8 8 8 9 9 10 10 10 10 9 9 9 9 9 9 9
7 7 7 7 7 7 7 7 7 7 6 6 6 6 6 6 6 6 6 6 7 7 7 7 7 8 8 8 9 9 9 10 10 10 10 10 9 9 9 9 9 9 9
7 7 7 7 7 7 7 7 7 7 7 7 7 7 7 7 7 7 7 7 7 8 8 8 8 8 9 9 9 10 10 10 10 10 10 10 9 9 9 9 10 10 10
8 7 7 7 7 7 7 7 7 7 7 7 7 7 7 7 8 8 8 8 8 9 9 9 9 9 10 10 10 10 10 10 10 10 10 10 9 9 10 10 10 10 10
Wind_Speed
12 12 11 11 11 10 9 10 10 9 8 8 7 7 6 6 4 3 3 3 5 6 8 9 11 9 8 7 7 7 7 6 6 3 1 1 2 5 5 7 8 9 10
13 12 13 12 11 11 12 12 11 11 10 9 8 8 8 7 5 5 5 4 5 5 6 8 10 9 10 8 8 8 8 8 6 6 3 2 3 6 7 7 6 8 9
13 13 14 14 13 13 14 13 12 12 11 10 9 9 9 8 7 7 7 6 6 6 6 6 7 9 10 9 9 9 8 7 7 5 4 3 2 5 7 7 8 7 8
14 15 15 16 15 15 14 13 13 12 12 12 11 11 10 9 9 8 8 7 7 7 7 6 6 7 9 10 9 10 9 8 7 6 5 4 4 6 8 8 7 5 6
15 15 16 16 15 15 14 13 13 12 13 12 12 11 10 9 9 9 9 8 7 7 7 7 7 8 10 9 8 9 10 9 8 8 7 6 6 8 8 6 8 8 6
14 16 16 16 16 16 15 14 13 13 12 11 12 12 11 10 12 14 11 8 8 8 7 7 7 9 10 12 13 13 14 12 11 10 9 9 10 9 8 11 10 8 5
15 16 16 16 16 16 17 15 13 12 11 11 11 11 12 12 15 15 15 9 9 8 8 7 7 6 8 8 10 13 15 15 14 12 12 11 13 13 13 14 12 7 5
16 16 16 16 17 16 15 15 14 11 10 10 10 11 11 12 15 16 15 11 9 9 9 9 8 7 7 8 7 9 10 12 14 12 12 11 12 14 15 12 13 9 9
17 17 17 17 17 16 16 14 12 10 10 9 7 9 10 11 14 15 13 7 8 10 9 9 9 9 10 11 9 9 10 9 11 13 13 11 14 18 17 14 14 14 10
18 18 17 16 16 16 15 13 11 10 10 10 9 9 10 10 12 14 12 6 7 7 7 7 10 11 11 12 10 10 11 9 8 9 10 12 15 20 22 19 17 17 13
18 17 17 15 14 13 12 11 9 8 8 9 9 8 8 10 11 13 12 7 8 7 6 6 6 10 12 13 11 10 11 9 9 10 10 11 13 14 14 12 12 16 14
17 17 16 14 12 11 9 8 7 7 7 7 7 7 6 8 10 11 12 12 10 8 7 6 6 8 10 11 10 9 11 11 8 9 10 11 12 13 12 11 9 7 5
16 16 14 13 10 9 8 7 6 5 5 5 5 6 6 5 7 11 12 12 13 9 7 8 8 7 7 6 9 11 12 10 9 10 11 10 10 12 12 10 9 9 8
16 14 13 11 10 9 7 5 5 4 4 5 5 6 5 4 5 5 5 6 9 9 7 6 6 6 5 5 5 8 8 9 9 10 10 10 10 12 12 11 11 10 8
15 13 12 10 9 8 7 5 4 4 5 5 5 5 5 5 6 8 6 6 6 7 6 4 4 4 5 5 5 6 6 7 8 8 11 11 12 11 10 10 10 10 8
13 12 10 9 8 7 6 5 4 3 4 7 7 6 5 6 5 6 8 8 8 10 7 5 6 6 6 6 6 6 6 8 8 10 11 12 13 13 11 10 11 11 10
12 11 9 8 7 7 6 5 4 3 4 4 1 4 6 4 4 4 5 7 8 10 6 6 6 6 6 6 6 7 6 7 8 10 12 12 13 13 12 12 11 10 9
12 11 9 7 6 6 5 4 3 2 1 2 3 3 1 2 3 5 8 7 5 6 5 6 6 6 6 6 7 7 7 9 9 10 11 12 12 13 12 12 11 11 10
11 9 8 7 6 5 4 3 2 1 1 0 1 2 3 3 4 6 7 4 5 6 5 5 5 6 6 7 7 8 9 10 11 11 11 12 12 12 11 11 10 12 10
10 13 10 6 5 5 4 3 2 1 1 0 0 0 1 1 2 3 3 3 4 5 5 5 5 6 6 7 7 8 10 10 12 11 11 11 11 11 12 12 11 11 10
9 10 11 7 5 4 3 3 2 1 1 0 0 1 1 2 2 3 3 4 4 4 5 5 5 5 6 7 8 9 11 10 11 11 11 11 11 11 10 10 11 10 9
8 7 6 5 5 4 4 3 2 1 1 1 0 0 2 1 1 2 2 2 2 3 4 4 5 5 7 8 9 10 11 11 11 11 11 11 11 11 10 10 10 9 10
8 7 6 5 4 4 4 3 2 2 2 2 1 0 0 0 0 1 1 1 2 3 4 5 6 6 7 7 8 10 11 11 11 12 12 11 11 10 10 10 11 11 10
8 7 6 6 5 4 3 3 2 2 2 2 2 2 1 1 1 2 2 2 2 3 4 5 6 8 9 8 7 8 9 10 12 12 15 13 12 10 10 10 10 11 10
9 8 6 5 5 4 4 3 3 2 2 2 2 2 2 2 3 3 2 2 3 4 4 4 5 7 10 11 10 9 11 13 12 12 12 11 12 11 10 10 9 10 9
9 9 7 6 5 5 4 4 3 3 2 2 2 2 2 2 3 3 3 4 4 3 3 4 5 7 9 9 11 13 13 13 13 14 11 10 11 10 10 8 10 9 10
Wind_Direction
272 268 265 262 257 250 246 248 248 250 249 250 256 262 265 263 251 237 243 262 253 243 228 220 222 212 206 203 197 196 202 206 230 242 211 147 127 119 98 88 83 80 87
277 275 272 268 262 255 250 248 244 243 244 243 243 246 253 255 246 236 241 240 246 255 248 231 227 219 213 205 198 199 201 202 213 230 213 177 150 141 123 105 90 85 88
285 283 280 277 271 262 255 249 243 240 241 239 235 237 242 244 243 242 237 231 229 239 248 246 237 221 218 209 202 202 200 199 204 213 213 183 146 143 128 111 102 95 93
289 286 283 279 275 271 263 254 245 238 236 236 233 232 235 239 240 241 240 236 228 226 229 238 245 234 227 215 206 204 195 193 197 205 209 189 160 150 142 137 123 109 101
293 290 286 283 280 277 270 261 253 242 237 233 231 231 231 232 237 234 232 235 229 229 228 232 235 241 241 226 212 201 191 192 195 202 204 190 173 166 159 148 136 120 95
294 292 290 288 286 282 276 268 258 248 239 229 227 227 228 231 231 228 222 225 228 230 236 239 240 238 244 237 222 205 192 192 196 199 203 198 186 169 156 151 144 140 131
294 293 292 289 287 285 282 275 264 254 242 231 226 222 226 230 232 235 231 223 228 230 233 239 250 240 222 232 227 215 207 202 197 198 203 199 185 171 162 161 161 149 137
297 295 293 290 288 285 281 273 266 258 248 238 231 223 223 231 230 234 237 231 230 234 235 236 242 251 234 218 217 217 215 212 209 209 213 203 184 172 168 158 145 118 109
301 297 295 291 288 286 282 273 266 257 248 238 228 223 223 232 231 231 230 223 226 234 237 235 235 245 237 215 211 214 217 217 213 209 205 193 169 159 152 143 142 140 141
307 303 299 294 289 285 282 276 267 255 246 239 234 226 224 231 234 231 221 213 221 232 239 238 235 237 233 214 213 209 213 209 192 189 189 177 167 160 158 160 158 155 150
310 308 305 301 295 290 286 279 271 260 247 235 234 231 227 230 236 233 218 204 212 223 231 237 237 234 230 218 216 215 210 192 183 177 172 167 163 163 164 162 161 161 159
315 314 313 309 304 302 295 287 278 262 246 235 231 235 234 232 231 234 224 213 207 212 222 229 233 232 228 219 216 210 190 179 177 172 167 164 163 163 163 158 148 138 129
320 319 318 316 312 305 297 290 281 260 242 229 223 229 236 232 229 228 227 221 213 211 220 220 224 225 220 218 217 199 182 182 177 174 169 163 159 155 149 140 127 113 100
323 323 323 322 319 315 306 292 274 254 235 225 223 227 232 234 230 222 218 218 213 212 216 215 209 206 205 204 196 193 192 184 178 173 162 151 146 148 149 148 149 145 131
326 326 327 327 325 323 319 308 286 257 236 222 224 219 219 232 233 213 202 204 198 196 183 181 182 186 196 195 191 190 184 176 174 160 154 151 151 151 150 151 151 153 152
327 328 327 327 327 326 326 329 329 311 263 240 239 234 234 234 238 218 212 205 188 170 165 180 192 198 196 193 187 181 176 172 166 157 155 154 155 154 152 153 158 164 163
325 322 322 325 326 327 328 331 333 359 41 40 332 236 229 230 229 204 179 169 169 167 179 190 193 198 196 193 184 175 170 163 158 156 153 152 151 152 154 157 163 166 165
324 321 324 319 321 321 323 323 321 327 350 26 35 42 123 183 177 161 150 142 159 183 196 195 196 193 193 190 183 172 161 156 156 154 151 148 149 150 154 159 164 165 161
325 322 320 320 322 323 325 331 335 334 353 40 53 46 72 105 127 155 161 172 179 191 201 203 197 189 186 183 175 165 157 156 155 152 149 148 149 151 154 158 159 155 156
325 326 332 326 328 335 340 343 345 351 2 14 80 127 132 140 152 172 195 202 198 200 199 198 188 177 173 167 160 155 152 150 151 149 148 148 150 154 155 156 158 162 166
324 325 333 335 336 336 337 343 347 358 358 338 300 226 201 201 198 203 208 216 217 204 192 187 175 168 163 155 153 151 148 148 150 149 149 151 152 152 154 155 158 161 159
325 323 326 330 333 341 345 357 6 12 23 39 354 238 225 227 208 204 220 227 213 193 181 170 161 160 158 155 152 152 150 150 151 149 148 150 151 151 152 155 157 158 158
328 330 336 337 341 349 5 20 22 24 26 22 21 37 128 227 230 200 204 163 148 151 153 152 147 146 150 153 156 157 155 155 155 153 151 151 152 153 155 158 159 160 165
332 334 338 342 350 359 4 7 12 26 35 33 32 28 32 24 34 55 59 76 106 121 128 134 138 143 148 151 157 159 156 152 153 155 152 153 155 156 159 161 165 169 172
343 345 348 350 353 358 5 12 21 38 49 47 37 29 29 33 42 51 56 73 94 110 122 131 137 145 152 157 158 153 145 143 147 151 152 153 156 159 163 165 166 166 167
353 355 355 356 359 5 14 21 29 39 47 47 54 47 31 27 38 50 59 73 86 94 102 116 128 138 145 151 148 142 141 144 146 147 151 152 155 161 164 166 168 172 173
Height
1468 1465 1462 1459 1457 1454 1452 1450 1449 1448 1447 1446 1445 1444 1444 1443 1444 1444 1445 1446 1448 1451 1454 1456 1459 1462 1464 1466 1468 1469 1471 1472 1472 1473 1475 1477 1478 1479 1480 1482 1484 1485 1487
1461 1457 1454 1450 1448 1445 1444 1442 1442 1440 1440 1439 1439 1438 1438 1438 1437 1438 1438 1439 1441 1443 1446 1448 1452 1455 1457 1460 1462 1464 1466 1468 1469 1469 1471 1474 1475 1477 1479 1481 1482 1484 1486
1453 1448 1444 1441 1438 1436 1434 1433 1432 1432 1432 1431 1431 1431 1432 1432 1432 1432 1432 1432 1433 1435 1437 1440 1444 1447 1450 1453 1456 1458 1461 1463 1464 1466 1468 1470 1472 1474 1477 1480 1481 1483 1485
1444 1439 1435 1431 1428 1425 1423 1422 1422 1422 1422 1422 1423 1423 1424 1425 1425 1426 1426 1426 1427 1428 1430 1432 1435 1438 1442 1445 1449 1452 1455 1457 1459 1461 1463 1466 1469 1471 1474 1477 1480 1482 1484
1435 1429 1424 1421 1417 1414 1412 1411 1410 1411 1411 1412 1414 1415 1416 1417 1418 1419 1420 1421 1422 1423 1424 1425 1427 1430 1433 1437 1442 1445 1448 1451 1453 1455 1458 1462 1464 1467 1471 1474 1477 1480 1483
1426 1420 1415 1410 1406 1402 1400 1399 1398 1398 1400 1402 1403 1405 1407 1409 1411 1412 1414 1415 1416 1417 1418 1419 1422 1423 1426 1429 1434 1438 1441 1444 1446 1449 1452 1455 1458 1462 1466 1470 1473 1477 1481
1417 1411 1406 1401 1396 1392 1389 1387 1386 1387 1389 1391 1393 1395 1398 1400 1403 1405 1407 1408 1410 1411 1413 1414 1416 1417 1419 1423 1426 1430 1433 1437 1440 1443 1446 1449 1453 1456 1461 1466 1470 1474 1477
1409 1402 1397 1391 1386 1382 1378 1376 1375 1376 1377 1380 1383 1386 1389 1392 1395 1397 1400 1401 1403 1404 1406 1407 1409 1411 1414 1417 1419 1422 1426 1429 1433 1437 1440 1444 1448 1452 1457 1461 1466 1471 1476
1401 1394 1388 1382 1376 1372 1368 1366 1365 1365 1367 1369 1373 1377 1380 1383 1387 1390 1392 1394 1396 1398 1400 1402 1403 1405 1408 1410 1413 1415 1419 1423 1427 1431 1435 1439 1443 1448 1452 1457 1462 1467 1472
1393 1386 1380 1374 1368 1362 1359 1357 1356 1356 1357 1360 1364 1368 1372 1375 1379 1382 1385 1387 1389 1391 1394 1396 1398 1400 1402 1404 1406 1409 1412 1416 1421 1425 1429 1433 1437 1442 1447 1452 1457 1462 1468
1387 1380 1373 1366 1361 1355 1352 1350 1349 1349 1350 1352 1356 1360 1364 1368 1372 1375 1378 1380 1383 1386 1388 1390 1392 1394 1396 1398 1400 1402 1406 1411 1415 1419 1423 1428 1433 1437 1443 1448 1455 1460 1464
1382 1375 1367 1361 1355 1351 1347 1345 1344 1344 1345 1347 1350 1354 1358 1362 1365 1368 1372 1374 1377 1380 1382 1385 1387 1389 1390 1392 1394 1397 1401 1405 1410 1414 1418 1423 1428 1434 1440 1446 1453 1459 1465
1379 1371 1364 1358 1353 1348 1345 1342 1341 1341 1342 1343 1346 1349 1352 1356 1359 1362 1365 1368 1371 1374 1377 1379 1382 1384 1385 1387 1390 1393 1396 1400 1404 1409 1414 1419 1425 1432 1438 1445 1452 1459 1466
1376 1369 1362 1356 1351 1347 1343 1341 1339 1339 1340 1341 1343 1345 1348 1351 1354 1357 1360 1363 1366 1369 1371 1374 1377 1379 1381 1383 1385 1388 1391 1395 1400 1405 1411 1417 1423 1430 1436 1443 1450 1457 1464
1375 1369 1362 1356 1351 1347 1343 1341 1339 1338 1338 1340 1341 1343 1346 1348 1351 1353 1356 1358 1361 1364 1367 1370 1372 1374 1376 1378 1381 1383 1387 1392 1397 1402 1408 1414 1421 1428 1435 1442 1449 1456 1462
1374 1368 1362 1357 1352 1348 1345 1342 1340 1338 1338 1339 1341 1342 1344 1346 1348 1350 1352 1355 1357 1360 1363 1365 1368 1370 1372 1374 1376 1380 1384 1388 1393 1399 1406 1412 1419 1425 1433 1441 1448 1454 1461
1374 1368 1363 1358 1354 1350 1346 1344 1341 1340 1340 1340 1341 1342 1343 1345 1346 1348 1350 1352 1354 1356 1359 1362 1364 1366 1369 1371 1373 1377 1381 1386 1391 1398 1404 1411 1417 1425 1432 1439 1447 1453 1460
1374 1369 1364 1359 1355 1352 1348 1346 1344 1342 1341 1341 1341 1342 1343 1344 1345 1347 1349 1350 1352 1354 1356 1359 1361 1363 1365 1368 1371 1375 1379 1384 1390 1396 1403 1410 1417 1424 1431 1438 1445 1451 1457
1373 1368 1364 1360 1356 1353 1350 1347 1345 1344 1343 1342 1342 1342 1342 1343 1344 1346 1347 1348 1349 1351 1353 1355 1358 1360 1363 1366 1369 1373 1378 1383 1389 1396 1403 1410 1417 1424 1431 1438 1444 1450 1456
1374 1369 1365 1361 1357 1354 1351 1349 1347 1345 1344 1343 1342 1342 1342 1342 1343 1344 1345 1346 1347 1348 1350 1353 1355 1357 1361 1364 1368 1372 1377 1383 1390 1396 1404 1411 1418 1425 1431 1437 1443 1449 1454
1374 1370 1365 1362 1358 1355 1353 1350 1348 1346 1345 1343 1342 1342 1342 1342 1342 1343 1344 1344 1345 1346 1348 1351 1353 1357 1360 1364 1368 1372 1378 1384 1391 1398 1406 1413 1419 1426 1432 1437 1443 1448 1453
1374 1370 1367 1363 1359 1356 1354 1352 1350 1348 1346 1345 1343 1342 1341 1341 1342 1342 1343 1343 1344 1345 1347 1350 1353 1356 1360 1364 1369 1374 1380 1387 1394 1401 1408 1414 1420 1426 1432 1437 1442 1447 1451
1374 1370 1367 1364 1361 1358 1355 1353 1351 1349 1348 1346 1344 1343 1343 1343 1343 1343 1343 1343 1344 1346 1348 1351 1354 1358 1362 1367 1373 1378 1384 1391 1397 1404 1410 1416 1421 1427 1432 1437 1442 1446 1450
1374 1371 1367 1365 1362 1359 1357 1355 1353 1352 1350 1349 1348 1347 1346 1346 1346 1345 1345 1346 1347 1349 1352 1355 1358 1362 1367 1372 1377 1383 1389 1395 1401 1407 1412 1417 1422 1427 1432 1437 1442 1446 1450
1375 1371 1368 1366 1364 1361 1359 1357 1356 1355 1354 1353 1352 1351 1351 1351 1351 1351 1351 1352 1353 1355 1358 1361 1364 1368 1373 1377 1382 1388 1393 1398 1404 1409 1414 1418 1423 1428 1432 1437 1441 1445 1449
1376 1373 1370 1368 1366 1364 1362 1360 1359 1358 1357 1356 1356 1356 1356 1356 1356 1357 1358 1359 1361 1362 1365 1368 1371 1374 1378 1383 1387 1391 1396 1401 1405 1410 1415 1419 1424 1428 1432 1437 1441 1444 1448